Lid_Strength_Index
-1 -1 -1 -1 -1 -1 -1 -1 -1 -1 -2 -2 -2 -2 -2 -2 -1 2 4 1 -1 -5 -3 0 1 0 1 2 1 2 10 10 9 8 9 6 6 6 7 8 7 8 9 7 6
-1 -1 -1 -1 -1 -1 -1 -1 -1 -1 -2 -2 -2 -2 -2 -2 2 4 -1 -5 -4 -4 1 2 3 2 4 2 3 6 10 9 7 6 7 6 6 7 8 8 9 9 9 7 7
-1 -1 -1 -1 -1 -1 -1 -1 -1 -1 -2 -2 -2 -2 -2 -1 3 4 -4 -4 -4 -3 0 1 2 2 3 3 5 6 9 6 6 5 5 6 7 6 9 9 8 9 9 8 8
-1 -1 -1 -1 -1 -1 -1 -1 -1 -1 -1 -2 -2 -2 -1 1 8 4 -4 -4 -3 -0 1 2 3 3 4 6 5 7 6 6 5 6 7 8 7 8 8 8 7 7 8 8 9
-1 -1 -1 -1 -1 -1 -1 -1 -1 -1 -1 -2 -2 -2 1 4 5 2 -4 -1 2 1 2 3 4 5 6 7 6 7 7 6 7 7 7 7 8 9 8 7 7 7 8 8 8
-0 -1 -1 -0 -0 -0 -1 -1 -1 -1 -1 -1 -1 -1 3 6 3 2 2 2 2 2 2 3 4 5 6 7 8 7 7 8 7 7 7 8 9 9 8 7 8 8 8 9 8
0 0 0 0 0 0 -0 -0 -1 -1 -1 -1 -1 2 4 6 3 3 2 2 2 2 3 3 3 5 5 7 6 7 9 9 8 8 8 8 11 10 8 8 8 9 9 8 8
0 0 1 1 1 1 0 0 -0 -0 -0 -1 -0 4 5 3 3 3 2 3 2 2 2 3 3 4 6 6 7 9 9 11 9 8 9 10 12 8 8 9 9 9 9 9 8
1 1 1 1 1 1 1 1 0 -1 -0 -0 4 5 7 3 5 3 3 4 3 3 2 4 4 5 6 8 9 9 12 11 10 8 9 11 12 9 9 9 10 10 10 9 9
2 2 2 2 1 1 2 1 0 1 3 2 4 7 6 7 5 4 3 4 5 4 5 5 6 8 8 10 13 13 13 12 12 10 10 11 11 9 9 10 10 10 10 10 9
3 2 3 2 2 2 2 4 6 6 5 6 7 7 7 6 5 6 5 5 5 6 9 6 10 10 10 10 10 11 12 12 11 10 12 12 11 10 9 10 10 10 10 10 10
3 3 3 3 2 3 3 4 5 5 8 6 7 7 6 6 8 7 5 8 7 9 7 9 11 10 9 9 10 11 12 12 11 10 12 12 12 10 10 10 10 9 10 10 9
4 4 4 3 3 3 4 4 2 3 7 8 7 7 7 7 8 8 7 7 9 10 10 11 10 9 10 11 11 12 13 14 14 12 11 12 13 13 12 12 11 10 9 9 9
4 4 4 4 4 3 4 3 2 3 10 10 9 8 7 6 9 7 6 7 9 11 10 11 10 10 11 11 12 14 12 12 13 14 16 13 17 14 13 12 12 12 11 11 10
4 4 4 5 5 5 4 2 2 5 15 10 9 7 7 9 9 9 7 8 10 10 10 12 12 12 12 12 12 13 12 13 13 15 15 14 16 15 13 13 13 13 11 11 10
5 5 5 5 4 3 2 3 4 11 15 11 9 10 10 9 9 8 9 8 8 10 10 12 11 11 12 11 12 12 13 13 14 15 17 16 17 15 14 13 13 12 12 11 10
5 6 6 4 5 2 3 5 12 14 10 12 12 10 11 11 10 10 11 12 12 14 14 12 12 12 12 13 12 13 15 16 17 17 17 15 17 15 13 12 12 12 12 12 11
5 6 6 4 2 2 5 9 14 11 11 9 10 10 12 10 10 11 11 12 11 12 13 14 15 13 13 14 15 14 15 17 21 20 18 15 18 14 13 12 12 12 12 11 11
6 7 5 3 3 4 8 13 13 11 10 11 10 12 12 11 11 11 12 12 11 12 14 14 15 14 14 14 14 14 16 15 17 17 18 16 15 13 13 13 13 13 12 12 11
7 5 5 3 3 5 10 12 11 10 10 10 12 11 13 12 13 12 12 11 11 11 11 13 16 14 14 14 14 15 14 16 16 19 21 16 16 15 14 13 12 13 13 11 10
8 7 4 3 3 8 12 11 10 9 9 11 11 12 12 12 13 13 12 12 10 12 12 13 14 16 15 16 15 16 16 16 16 17 19 20 16 14 14 13 13 13 12 11 11
5 9 4 3 9 9 12 10 9 10 9 10 10 10 12 12 13 13 12 11 11 11 14 13 13 16 16 15 15 16 16 15 17 17 17 18 18 13 13 12 12 12 11 11 10
7 8 4 5 12 11 10 10 9 10 10 10 11 10 10 11 13 12 11 11 11 12 13 13 15 17 18 17 15 16 15 15 14 15 17 19 16 12 12 13 11 11 10 10 10
7 10 8 7 8 10 10 10 11 9 9 9 10 10 11 11 11 12 12 11 11 10 9 10 13 14 16 15 14 16 15 15 15 18 17 16 15 12 11 11 11 11 10 11 10
8 9 8 12 11 10 10 9 11 11 9 9 10 10 11 12 12 12 11 12 11 10 12 12 14 13 13 13 13 13 13 14 16 15 16 15 14 12 11 11 11 11 10 10 10
9 8 8 9 9 10 10 10 10 10 11 11 11 10 10 11 11 12 11 12 12 12 12 12 14 14 15 13 13 14 13 13 13 14 14 13 14 10 10 10 11 11 10 11 10
7 5 8 9 10 11 11 10 10 9 9 9 10 10 11 10 9 9 9 9 10 12 13 13 13 14 16 14 14 16 13 13 13 12 12 15 12 10 11 10 11 10 10 10 10